LRBS Weather Reports


time (UTC)temp
C
wind
direction
speed
KPH
gust
KPH
rain 1hr
cm
rain 24hr
cm
rain mn
cm
humidity
%
barometer
mb
20260508053314 16 1.6 0.0 0.00 0.00 0.00 83 1016.0
20260508051815 15 300 8.0 0.0 0.00 0.00 0.00 88 1016.0
20260508050315 15 300 8.0 0.0 0.00 0.00 0.00 88 1016.0
20260508044814 15 3.2 0.0 0.00 0.00 0.00 88 1015.0
20260508043314 15 3.2 0.0 0.00 0.00 0.00 88 1015.0
20260508041812 12 60 4.8 0.0 0.00 0.00 0.00 94 1015.0
20260508040315 12 60 4.8 0.0 0.00 0.00 0.00 94 1015.0
20260508034812 12 70 8.0 0.0 0.00 0.00 0.00 94 1015.0
20260508033314 12 70 8.0 0.0 0.00 0.00 0.00 94 1015.0
20260508031814 12 50 4.8 0.0 0.00 0.00 0.00 94 1015.0
20260508030314 12 50 4.8 0.0 0.00 0.00 0.00 94 1015.0
20260508024814 13 3.2 0.0 0.00 0.00 0.00 82 1015.0
20260508023315 13 3.2 0.0 0.00 0.00 0.00 82 1015.0
20260508021815 13 3.2 0.0 0.00 0.00 0.00 82 1015.0
20260508020314 13 3.2 0.0 0.00 0.00 0.00 82 1015.0
20260508014814 13 50 4.8 0.0 0.00 0.00 0.00 82 1015.0
20260508013314 13 50 4.8 0.0 0.00 0.00 0.00 82 1015.0
20260508011814 13 70 8.0 0.0 0.00 0.00 0.00 88 1015.0
20260508010314 13 70 8.0 0.0 0.00 0.00 0.00 88 1015.0
20260508004815 13 60 8.0 0.0 0.00 0.00 0.00 88 1015.0
20260508003314 13 60 8.0 0.0 0.00 0.00 0.00 88 1015.0
20260508001815 15 20 8.0 0.0 0.00 0.00 0.00 82 1015.0
20260508000314 15 20 8.0 0.0 0.00 0.00 0.00 82 1015.0
20260507234815 15 30 8.0 0.0 0.00 0.00 0.00 82 1015.0
20260507233314 15 30 8.0 0.0 0.00 0.00 0.00 82 1015.0
20260507231814 16 10 4.8 0.0 0.00 0.00 0.00 83 1015.0
20260507230314 16 10 4.8 0.0 0.00 0.00 0.00 83 1015.0
20260507224814 17 40 4.8 0.0 0.00 0.00 0.00 77 1015.0
20260507223430 17 40 4.8 0.0 0.00 0.00 0.00 77 1015.0
20260507221814 17 360 4.8 0.0 0.00 0.00 0.00 73 1015.0
20260507220313 17 360 4.8 0.0 0.00 0.00 0.00 73 1015.0
20260507214814 17 270 8.0 0.0 0.00 0.00 0.00 78 1015.0
20260507213316 17 270 8.0 0.0 0.00 0.00 0.00 78 1015.0
20260507211814 18 240 8.0 0.0 0.00 0.00 0.00 73 1015.0
20260507210314 18 240 8.0 0.0 0.00 0.00 0.00 73 1015.0
20260507204814 18 1.6 0.0 0.00 0.00 0.00 73 1015.0
20260507203314 18 1.6 0.0 0.00 0.00 0.00 73 1015.0
20260507201814 18 1.6 0.0 0.00 0.00 0.00 68 1015.0
20260507200315 18 1.6 0.0 0.00 0.00 0.00 68 1015.0
20260507194820 20 0 0.0 0.0 0.00 0.00 0.00 64 1015.0
20260507193314 20 0 0.0 0.0 0.00 0.00 0.00 64 1015.0
20260507191814 18 80 8.0 0.0 0.00 0.00 0.00 68 1015.0
20260507190315 18 80 8.0 0.0 0.00 0.00 0.00 68 1015.0
20260507184816 20 3.2 0.0 0.00 0.00 0.00 64 1015.0
20260507183314 20 3.2 0.0 0.00 0.00 0.00 64 1015.0
20260507181814 21 70 9.7 0.0 0.00 0.00 0.00 57 1014.0
20260507180314 21 70 9.7 0.0 0.00 0.00 0.00 57 1014.0
20260507174814 22 60 8.0 0.0 0.00 0.00 0.00 53 1014.0
20260507173315 22 60 8.0 0.0 0.00 0.00 0.00 53 1014.0
20260507171815 22 3.2 0.0 0.00 0.00 0.00 50 1014.0
20260507170314 22 3.2 0.0 0.00 0.00 0.00 50 1014.0
20260507164815 25 260 4.8 0.0 0.00 0.00 0.00 39 1014.0
20260507163314 25 260 4.8 0.0 0.00 0.00 0.00 39 1014.0
20260507161814 25 240 8.0 0.0 0.00 0.00 0.00 34 1014.0
20260507160314 25 240 8.0 0.0 0.00 0.00 0.00 34 1014.0
20260507154814 26 100 4.8 0.0 0.00 0.00 0.00 34 1014.0
20260507153314 26 100 4.8 0.0 0.00 0.00 0.00 34 1014.0
20260507151814 25 120 11.3 0.0 0.00 0.00 0.00 39 1014.0
20260507150314 25 120 11.3 0.0 0.00 0.00 0.00 39 1014.0
20260507144814 27 110 12.9 0.0 0.00 0.00 0.00 34 1014.0
20260507143316 27 110 12.9 0.0 0.00 0.00 0.00 34 1014.0
20260507141814 26 110 11.3 0.0 0.00 0.00 0.00 34 1014.0
20260507140314 26 110 11.3 0.0 0.00 0.00 0.00 34 1014.0
20260507134814 27 90 12.9 0.0 0.00 0.00 0.00 34 1014.0
20260507133314 27 90 12.9 0.0 0.00 0.00 0.00 34 1014.0
20260507131811 26 100 11.3 0.0 0.00 0.00 0.00 34 1015.0
20260507130314 26 100 11.3 0.0 0.00 0.00 0.00 34 1015.0
20260507124814 26 8.0 0.0 0.00 0.00 0.00 34 1015.0
20260507123352 26 8.0 0.0 0.00 0.00 0.00 34 1015.0
20260507121814 25 110 8.0 0.0 0.00 0.00 0.00 39 1015.0
20260507120314 25 110 8.0 0.0 0.00 0.00 0.00 39 1015.0
20260507114814 25 120 9.7 0.0 0.00 0.00 0.00 34 1015.0
20260507113330 25 100 11.3 0.0 0.00 0.00 0.00 36 1016.0
20260507111814 25 100 11.3 0.0 0.00 0.00 0.00 36 1016.0
20260507110314 25 100 11.3 0.0 0.00 0.00 0.00 36 1016.0
20260507104813 23 160 11.3 0.0 0.00 0.00 0.00 34 1016.0
20260507103314 23 160 11.3 0.0 0.00 0.00 0.00 34 1016.0
20260507101814 22 8.0 0.0 0.00 0.00 0.00 36 1016.0
20260507100314 22 8.0 0.0 0.00 0.00 0.00 36 1016.0
20260507094814 22 60 9.7 0.0 0.00 0.00 0.00 36 1016.0
20260507093314 22 60 9.7 0.0 0.00 0.00 0.00 36 1016.0
20260507091815 22 80 9.7 0.0 0.00 0.00 0.00 38 1016.0
20260507090314 22 80 9.7 0.0 0.00 0.00 0.00 38 1016.0
20260507084814 21 90 12.9 0.0 0.00 0.00 0.00 43 1016.0
20260507083314 21 90 12.9 0.0 0.00 0.00 0.00 43 1016.0
20260507081814 20 80 14.5 0.0 0.00 0.00 0.00 46 1016.0
20260507080315 20 80 14.5 0.0 0.00 0.00 0.00 46 1016.0
20260507074814 17 60 9.7 0.0 0.00 0.00 0.00 56 1016.0
20260507073314 17 60 9.7 0.0 0.00 0.00 0.00 56 1016.0
20260507071814 17 60 12.9 0.0 0.00 0.00 0.00 56 1016.0
20260507070314 17 60 12.9 0.0 0.00 0.00 0.00 56 1016.0
20260507064814 16 70 11.3 0.0 0.00 0.00 0.00 59 1016.0
20260507063314 16 70 11.3 0.0 0.00 0.00 0.00 59 1016.0
20260507061826 13 60 11.3 0.0 0.00 0.00 0.00 72 1016.0
20260507060314 13 60 11.3 0.0 0.00 0.00 0.00 72 1016.0
20260507054814 12 70 12.9 0.0 0.00 0.00 0.00 72 1016.0